Location: Launay
(47.2429°N, 1.5727°E)
Time: 17:16:57
(UTC+00:00)

Cosmos 1470 - Pass Details

Date: 19 May 2025
Orbit: 456 x 466 km, 82.5° (Epoch: 12 June)

Event Time Altitude Azimuth Distance (km) Brightness Sun altitude
Rises 23:02:26 0° 354° (N) 2,517 7.7 -21.9°
Reaches altitude 10° 23:04:34 10° 359° (N) 1,637 6.3 -22.0°
Enters shadow 23:07:50 53° 58° (ENE) 581 3.0 -22.1°
